Dewpoint
61 52 46 46 30 26 23 20 19 20 22 27 31 32 31 34 42 48 59 62 63 62 66 67 71 72 71 71 71 72 73 73 72 72 72 72 72 73 72 72 72 73 72 72 71 69 69 69 70
48 39 34 30 24 15 15 14 17 19 23 31 31 32 32 33 52 54 57 58 61 62 63 66 71 72 72 71 71 72 72 72 72 72 72 71 71 71 71 72 72 71 72 72 70 68 69 69 69
47 49 28 25 18 13 12 11 8 20 25 24 26 30 35 42 50 57 60 58 61 63 61 67 71 71 72 72 72 72 71 71 71 71 71 70 71 71 71 71 71 71 71 71 69 69 69 69 69
42 35 25 19 17 15 10 9 8 11 18 22 23 28 34 50 53 58 59 57 60 61 65 69 70 71 72 72 72 71 71 70 70 70 70 70 70 71 70 70 70 70 70 70 69 69 69 68 68
34 27 18 14 9 8 7 4 1 7 15 17 28 30 37 53 55 57 58 57 60 66 66 67 70 71 71 71 71 71 70 70 70 69 69 70 70 69 70 70 70 70 70 70 70 70 69 68 68
27 21 15 10 8 4 2 0 -0 8 12 10 19 25 31 53 54 56 57 60 60 65 66 66 70 71 71 71 71 70 69 70 69 69 69 70 69 69 69 70 70 69 70 70 70 69 68 68 68
27 20 13 10 6 3 0 1 0 5 7 6 7 7 20 50 57 58 59 62 62 64 66 67 68 69 70 70 70 69 69 69 69 69 69 69 69 69 69 69 68 68 69 70 69 69 68 68 68
24 19 15 11 8 5 5 0 1 3 4 4 4 8 21 56 57 59 59 61 63 67 67 68 69 68 69 69 69 69 69 69 68 68 68 69 69 69 69 69 69 68 68 69 69 68 68 68 67
21 18 13 10 7 5 4 0 1 6 7 7 7 8 44 55 55 58 59 59 62 65 67 68 68 69 70 69 70 69 69 69 68 68 68 68 68 67 67 66 67 68 68 68 68 68 68 67 66
17 15 13 12 9 3 1 1 5 5 2 1 7 9 26 50 50 52 56 57 61 63 66 68 69 69 69 70 70 70 69 69 69 68 68 68 68 68 65 66 67 68 68 68 68 67 66 65 64
15 14 15 13 11 8 7 5 5 4 5 4 3 6 9 36 42 47 47 54 61 62 65 66 68 70 68 69 70 70 69 69 68 68 67 68 67 67 68 67 67 67 67 66 66 66 62 61 63
10 8 9 9 8 7 7 6 6 8 7 7 9 10 7 11 32 41 46 46 60 61 63 64 66 69 69 70 69 68 68 68 68 67 66 66 64 67 67 65 64 63 63 64 65 64 61 62 64
11 10 9 9 8 7 6 5 5 8 9 6 6 9 12 10 11 14 38 47 58 60 62 62 65 68 69 69 69 68 67 67 67 65 66 66 62 62 63 63 63 62 63 63 64 63 65 65 65
8 8 8 8 9 9 8 8 8 10 10 7 7 8 9 13 13 13 26 47 52 60 63 63 64 68 68 68 68 68 68 68 66 65 66 65 61 60 59 60 63 63 64 63 63 64 66 65 65
6 3 3 3 4 5 7 6 7 8 8 8 8 7 9 14 14 15 20 47 49 58 62 64 64 68 68 68 68 68 68 67 65 65 64 65 64 62 59 60 62 64 63 62 65 66 66 65 64
10 5 1 -2 -0 3 2 4 5 7 7 8 10 8 7 10 12 15 20 23 35 51 60 64 62 65 68 68 68 68 68 67 65 64 64 64 63 62 62 63 62 63 66 67 66 65 64 64 64
-7 -7 -3 -7 -10 -5 7 7 5 7 7 8 9 6 7 10 11 16 19 16 16 47 61 62 64 65 67 68 68 68 67 67 66 64 63 63 61 58 62 62 63 64 66 67 66 64 63 63 62
-1 2 5 3 2 3 0 1 6 9 8 12 10 13 10 10 9 14 19 14 14 37 61 62 63 66 66 68 67 67 68 67 66 66 65 63 60 59 62 61 62 62 65 66 64 63 63 62 60
2 7 7 1 -1 2 7 7 5 6 8 11 11 12 13 13 13 17 29 25 24 35 60 62 62 65 66 67 66 65 64 66 66 66 64 64 63 61 59 59 61 61 64 63 63 63 61 61 57
-1 3 -3 -4 -2 6 10 13 11 11 10 10 10 12 14 16 17 17 20 25 35 43 60 61 62 64 64 67 66 65 65 66 66 65 63 63 63 62 63 64 64 62 63 63 64 62 61 58 57
3 -1 -3 -4 -2 -1 7 6 9 12 15 16 18 17 17 16 15 18 23 27 40 45 59 60 62 63 64 65 66 65 65 66 65 64 63 62 62 63 63 64 63 63 63 64 64 62 60 57 58
0 1 1 2 4 0 5 4 5 6 7 23 29 32 33 35 37 38 32 22 27 44 59 60 62 63 63 64 63 63 64 63 64 63 62 61 61 62 63 62 63 61 63 64 63 62 60 59 58
1 5 2 3 3 5 6 5 10 27 26 25 26 28 30 33 36 38 39 42 44 34 58 59 63 63 63 64 63 62 60 63 64 64 62 60 62 62 62 61 64 61 63 65 63 62 61 61 59
4 5 3 3 2 3 5 6 23 26 26 24 25 26 29 31 34 36 38 39 41 45 50 59 63 63 63 63 63 62 61 60 63 63 62 60 60 60 59 59 62 63 62 65 64 63 63 62 61
3 4 1 -2 2 8 23 21 24 28 25 24 25 25 26 30 32 34 35 37 39 42 47 60 62 62 63 63 62 62 62 61 61 62 61 61 59 59 58 58 59 62 61 65 64 64 63 64 63
3 3 7 6 2 2 8 22 21 26 26 23 25 27 26 28 31 32 35 36 37 40 44 50 60 62 63 63 62 62 61 61 60 60 61 61 60 60 59 59 58 60 62 64 64 64 64 64 64
6 7 8 13 5 8 12 19 26 19 21 25 24 27 28 29 30 32 34 36 37 39 41 48 52 60 63 63 62 62 62 61 61 58 60 62 61 60 61 60 60 59 62 61 64 64 63 64 64
13 17 17 13 10 10 17 16 16 20 22 23 25 27 30 29 30 30 32 35 36 39 41 48 53 55 63 63 63 62 61 62 61 59 57 61 61 61 60 61 61 60 61 61 62 61 63 63 64
13 17 17 13 10 10 12 12 26 24 26 25 26 26 31 30 30 31 32 34 35 39 41 46 50 52 62 63 63 62 61 62 61 60 57 57 61 60 60 61 61 61 60 61 60 61 61 62 63
12 25 16 12 6 14 18 13 21 26 25 26 27 28 30 30 31 33 33 34 35 38 39 42 46 49 59 62 63 62 62 62 62 61 58 57 59 60 60 61 61 61 61 61 59 60 60 62 63
Lifted_Index
2 3 3 3 3 3 2 2 2 0 -0 -0 -0 1 0 -1 -3 -3 -3 -3 -3 -2 -1 -2 -3 -3 -3 -2 -3 -3 -3 -3 -3 -3 -3 -3 -3 -4 -4 -4 -4 -4 -4 -3 -2 -2 -1 -1 -1
3 3 4 4 3 2 2 2 1 0 -0 -0 0 1 0 -1 -3 -4 -3 -3 -3 -2 -2 -2 -3 -3 -3 -3 -3 -3 -3 -3 -3 -3 -3 -3 -3 -3 -3 -3 -3 -3 -3 -3 -2 -1 -1 -1 -1
4 4 4 4 4 3 2 2 1 0 0 0 1 1 -1 -2 -4 -4 -4 -3 -3 -3 -2 -2 -3 -3 -3 -3 -2 -2 -2 -2 -2 -2 -2 -2 -2 -2 -2 -2 -3 -3 -3 -2 -2 -1 -1 -0 -0
4 4 5 5 4 3 3 2 1 0 0 1 1 0 -1 -3 -4 -4 -4 -3 -3 -3 -3 -2 -2 -3 -3 -3 -2 -2 -2 -1 -1 -1 -1 -1 -1 -1 -1 -2 -2 -2 -2 -2 -1 -1 -0 0 1
5 5 5 5 4 3 2 1 1 1 1 1 1 1 -2 -3 -4 -4 -3 -3 -3 -3 -3 -2 -2 -2 -2 -2 -2 -2 -1 -1 -1 -1 -1 -1 -1 -1 -1 -1 -1 -1 -1 -2 -1 -1 0 1 1
5 5 5 5 4 3 2 1 0 1 1 2 2 1 -1 -3 -4 -3 -3 -3 -3 -3 -3 -2 -2 -2 -2 -2 -2 -1 -1 -1 -0 -1 -1 -1 -0 -0 -0 -1 -1 -0 -1 -1 -1 -0 0 1 1
5 5 5 4 4 2 1 0 0 1 2 2 2 2 0 -3 -4 -3 -3 -3 -3 -3 -3 -3 -3 -3 -2 -2 -2 -1 -1 -1 -0 -0 -0 -0 -0 0 0 -0 -0 0 -0 -1 -1 -0 0 0 0
5 5 5 4 4 3 1 0 1 2 3 3 3 3 0 -3 -4 -4 -4 -3 -3 -4 -4 -3 -3 -3 -3 -2 -1 -1 -1 -0 -0 -0 -0 -0 -0 0 0 0 1 1 0 0 -0 0 0 0 0
5 5 4 4 4 3 1 0 1 2 3 4 4 3 -0 -2 -3 -3 -3 -3 -4 -4 -4 -3 -3 -4 -3 -2 -1 -1 -1 -0 -0 -0 -0 -0 -0 0 1 1 1 1 0 0 0 0 0 0 1
5 4 4 4 3 3 2 1 2 2 3 4 4 3 1 -1 -2 -2 -3 -3 -4 -4 -4 -4 -4 -4 -4 -3 -2 -1 -1 -1 -0 -0 -0 -0 -1 -0 1 1 1 1 1 0 0 0 1 1 1
4 4 4 4 4 3 3 3 3 4 4 5 5 4 3 1 0 -0 -1 -2 -3 -3 -3 -3 -4 -4 -4 -3 -2 -1 -1 -1 -1 -0 0 -0 -0 -0 0 0 1 1 1 1 0 1 1 1 1
4 4 4 4 4 4 4 4 4 4 5 5 5 5 4 3 3 2 0 -1 -3 -3 -3 -3 -4 -4 -4 -3 -2 -1 -1 -1 -0 0 1 1 0 0 0 0 1 1 1 1 1 1 1 1 1
4 4 4 4 4 4 4 4 5 5 5 5 5 5 5 5 5 4 2 -0 -2 -3 -3 -3 -4 -5 -5 -4 -2 -1 -1 -1 0 1 1 2 1 1 1 1 1 1 1 1 0 0 1 1 1
5 5 5 5 5 4 4 4 5 5 5 5 5 5 5 5 5 5 3 0 -2 -3 -4 -4 -4 -5 -5 -4 -3 -2 -1 -0 0 1 2 2 2 2 2 2 1 0 0 0 0 0 0 1 1
5 4 4 4 4 4 4 4 5 5 4 4 4 4 4 5 5 5 4 2 -0 -2 -4 -4 -4 -5 -5 -5 -3 -2 -1 -1 0 1 2 2 3 3 2 2 1 0 -0 -0 -0 -0 0 1 1
4 4 3 3 3 3 3 3 4 4 3 3 3 3 3 4 5 5 5 4 2 -1 -4 -4 -4 -4 -5 -5 -4 -3 -2 -1 -0 1 2 3 3 3 2 1 0 -0 -0 -0 -0 -0 0 1 1
3 3 3 3 3 3 2 2 2 3 2 2 3 3 3 3 4 4 5 5 4 0 -3 -4 -4 -4 -5 -5 -4 -3 -2 -1 -0 1 2 2 3 3 2 1 0 -0 -0 -1 -0 0 1 1 1
3 3 3 3 4 4 3 2 3 3 3 3 4 4 3 3 3 4 4 4 4 1 -3 -4 -4 -5 -5 -5 -5 -4 -3 -2 -1 0 1 2 2 3 2 1 1 0 -0 -0 0 1 1 2 2
4 3 3 4 4 4 3 3 3 3 4 4 5 5 4 4 4 3 3 4 3 1 -2 -4 -4 -5 -5 -5 -5 -4 -3 -3 -2 -0 1 1 1 2 1 1 1 0 -0 -0 0 1 2 2 2
4 4 3 3 4 3 3 3 3 3 4 5 5 5 5 4 4 4 4 3 3 0 -3 -4 -5 -5 -5 -5 -5 -5 -4 -3 -2 -1 -0 0 1 1 1 0 0 0 -0 -0 0 1 2 2 2
4 4 4 3 3 3 2 2 2 2 3 3 3 4 4 4 4 4 4 3 2 -1 -4 -5 -5 -5 -5 -5 -5 -5 -4 -4 -3 -2 -1 -0 1 1 1 0 0 0 -0 -1 0 1 2 3 3
4 4 4 4 3 3 2 2 1 1 1 1 2 2 3 3 3 4 4 3 2 -2 -4 -5 -5 -5 -5 -5 -5 -5 -4 -4 -3 -2 -1 -1 0 1 1 1 0 0 -1 -1 -0 1 2 2 2
4 4 4 3 3 2 2 1 1 0 1 1 2 2 2 3 3 4 4 3 2 -1 -5 -6 -5 -5 -5 -5 -4 -4 -4 -3 -3 -3 -2 -1 -0 1 1 1 0 -0 -1 -2 -1 0 1 1 2
5 4 3 3 2 1 1 1 1 2 3 3 4 3 3 3 4 4 4 3 3 1 -3 -5 -5 -5 -5 -4 -4 -4 -3 -3 -3 -3 -2 -1 -0 1 1 1 0 -1 -2 -2 -1 -0 0 0 1
4 3 2 1 1 1 1 1 3 5 6 6 6 6 5 4 4 4 4 3 3 1 -2 -4 -5 -5 -5 -4 -4 -4 -4 -3 -3 -3 -2 -1 -1 0 1 1 0 -1 -2 -2 -1 -1 -1 -1 -1
2 1 0 0 1 1 2 2 4 7 8 8 8 7 6 5 4 4 4 3 2 1 -1 -2 -3 -4 -4 -4 -4 -4 -4 -4 -3 -3 -2 -2 -1 -0 0 1 0 -1 -1 -2 -2 -2 -1 -1 -1
0 0 -0 0 1 1 2 3 5 7 8 8 8 7 6 6 5 4 4 4 3 2 1 -0 -1 -3 -4 -4 -4 -4 -3 -4 -3 -3 -2 -2 -2 -1 -0 -0 -0 -1 -1 -1 -2 -2 -2 -2 -2
0 -0 -0 0 1 1 1 3 5 7 7 7 8 8 8 7 6 5 5 5 4 4 3 2 0 -2 -3 -4 -4 -3 -3 -4 -3 -3 -2 -2 -2 -1 -1 -1 -1 -0 -0 -0 -1 -2 -2 -2 -2
0 0 0 0 0 0 1 3 6 8 8 8 8 8 9 9 8 6 5 5 5 4 4 3 1 -2 -3 -3 -4 -3 -3 -4 -3 -3 -1 -1 -2 -1 -1 -1 -1 -1 -0 -0 -0 -1 -2 -2 -2
0 0 0 0 1 1 1 4 6 8 9 9 9 9 9 9 9 8 6 5 4 4 5 4 2 -1 -2 -4 -4 -3 -3 -4 -3 -2 -1 -1 -1 -1 -1 -1 -1 -1 -1 -0 0 -0 -1 -2 -2